Location: Unspecified
(0.0000°N, 0.0000°E)
Time: 04:19:51
(UTC+01:00)

Hubble Space Telescope - Pass Details

Date: 29 October 2021
Orbit: 535 x 538 km, 28.5° (Epoch: 27 November)

Event Time Altitude Azimuth Distance (km) Brightness Sun altitude
Exits shadow 05:17:34 12° 131° (SE) 1,678 3.9 -35.4°
Drops below altitude 10° 05:17:44 11° 131° (SE) 1,743 4.0 -35.3°
Sets 05:20:08 0° 127° (SE) 2,675 5.2 -34.8°
